OPTUS 10

Last updated on Thu Oct 30 2025 00:02:49 GMT+0000 (Coordinated Universal Time)

1 40146U 14054A 25302.43069081 -.00000137 00000+0 00000+0 0 9992 2 40146 0.1190 348.2773 0002976 223.9573 136.8524 1.00273961 40717
UTC large
Height (km)
Speed (km/s)
/
Latitude / Longitude
Inclination (degrees)
Orbital Period (minutes)
Azimuth
Elevation
Range (km)
Doppler Factor

Next 0 passes for location: London (51.5072 / 0.1276)

Sorry there are no passes over London.